| time (UTC) | temp F | wind direction | speed MPH | gust MPH | rain 1hr in | rain 24hr in | rain mn in | humidity % | barometer mb |
| 20260506200632 | 84 | 0.0 | 0.0 | 0.00 | 0.00 | 0.00 | 37 | 961.8 | |
| 20260506200132 | 84 | 0.0 | 0.0 | 0.00 | 0.00 | 0.00 | 37 | 961.8 | |
| 20260506195633 | 84 | 0.0 | 0.0 | 0.00 | 0.00 | 0.00 | 37 | 961.8 | |
| 20260506195132 | 84 | 0.0 | 0.0 | 0.00 | 0.00 | 0.00 | 37 | 961.7 | |
| 20260506194632 | 84 | 0.0 | 0.0 | 0.00 | 0.00 | 0.00 | 38 | 961.7 | |
| 20260506194132 | 84 | 0.0 | 0.0 | 0.00 | 0.00 | 0.00 | 37 | 961.7 | |
| 20260506193632 | 84 | 0.0 | 0.0 | 0.00 | 0.00 | 0.00 | 37 | 961.5 | |
| 20260506193132 | 84 | 0.0 | 0.0 | 0.00 | 0.00 | 0.00 | 38 | 961.5 | |
| 20260506192632 | 84 | 0.0 | 0.0 | 0.00 | 0.00 | 0.00 | 37 | 961.5 | |
| 20260506192131 | 85 | 0.0 | 0.0 | 0.00 | 0.00 | 0.00 | 37 | 961.4 | |
| 20260506191631 | 84 | 0.0 | 0.0 | 0.00 | 0.00 | 0.00 | 37 | 961.3 | |
| 20260506191131 | 85 | 0.0 | 0.0 | 0.00 | 0.00 | 0.00 | 37 | 961.3 | |
| 20260506190631 | 85 | 0.0 | 0.0 | 0.00 | 0.00 | 0.00 | 37 | 961.3 | |
| 20260506190131 | 85 | 0.0 | 0.0 | 0.00 | 0.00 | 0.00 | 37 | 961.2 | |
| 20260506185631 | 85 | 0.0 | 0.0 | 0.00 | 0.00 | 0.00 | 37 | 961.0 | |
| 20260506185131 | 85 | 0.0 | 0.0 | 0.00 | 0.00 | 0.00 | 37 | 961.0 | |
| 20260506184631 | 85 | 0.0 | 0.0 | 0.00 | 0.00 | 0.00 | 37 | 960.9 | |
| 20260506184131 | 85 | 0.0 | 0.0 | 0.00 | 0.00 | 0.00 | 37 | 960.9 | |
| 20260506183631 | 85 | 0.0 | 0.0 | 0.00 | 0.00 | 0.00 | 37 | 960.7 | |
| 20260506183131 | 85 | 0.0 | 0.0 | 0.00 | 0.00 | 0.00 | 37 | 960.5 | |
| 20260506182631 | 85 | 0.0 | 0.0 | 0.00 | 0.00 | 0.00 | 37 | 960.5 | |
| 20260506182131 | 85 | 0.0 | 0.0 | 0.00 | 0.00 | 0.00 | 37 | 960.3 | |
| 20260506181631 | 85 | 0.0 | 0.0 | 0.00 | 0.00 | 0.00 | 37 | 960.2 | |
| 20260506181130 | 85 | 0.0 | 0.0 | 0.00 | 0.00 | 0.00 | 37 | 960.1 | |
| 20260506180630 | 85 | 0.0 | 0.0 | 0.00 | 0.00 | 0.00 | 37 | 960.1 | |
| 20260506180130 | 85 | 0.0 | 0.0 | 0.00 | 0.00 | 0.00 | 37 | 960.0 | |
| 20260506175631 | 85 | 0.0 | 0.0 | 0.00 | 0.00 | 0.00 | 37 | 960.1 | |
| 20260506175130 | 85 | 0.0 | 0.0 | 0.00 | 0.00 | 0.00 | 37 | 960.1 | |
| 20260506174630 | 85 | 0.0 | 0.0 | 0.00 | 0.00 | 0.00 | 37 | 960.2 | |
| 20260506174130 | 85 | 0.0 | 0.0 | 0.00 | 0.00 | 0.00 | 37 | 960.1 | |
| 20260506173631 | 85 | 0.0 | 0.0 | 0.00 | 0.00 | 0.00 | 37 | 960.1 | |
| 20260506173131 | 85 | 0.0 | 0.0 | 0.00 | 0.00 | 0.00 | 36 | 960.0 | |
| 20260506172630 | 86 | 0.0 | 0.0 | 0.00 | 0.00 | 0.00 | 37 | 960.0 | |
| 20260506172130 | 86 | 0.0 | 0.0 | 0.00 | 0.00 | 0.00 | 36 | 960.0 | |
| 20260506171630 | 85 | 0.0 | 0.0 | 0.00 | 0.00 | 0.00 | 37 | 960.0 | |
| 20260506171130 | 85 | 0.0 | 0.0 | 0.00 | 0.00 | 0.00 | 37 | 960.0 | |
| 20260506170630 | 85 | 0.0 | 0.0 | 0.00 | 0.00 | 0.00 | 37 | 960.1 | |
| 20260506170130 | 85 | 0.0 | 0.0 | 0.00 | 0.00 | 0.00 | 37 | 960.1 | |
| 20260506165630 | 84 | 0.0 | 0.0 | 0.00 | 0.00 | 0.00 | 37 | 960.0 | |
| 20260506165130 | 84 | 0.0 | 0.0 | 0.00 | 0.00 | 0.00 | 37 | 960.0 | |
| 20260506164630 | 85 | 0.0 | 0.0 | 0.00 | 0.00 | 0.00 | 37 | 960.0 | |
| 20260506164130 | 85 | 0.0 | 0.0 | 0.00 | 0.00 | 0.00 | 37 | 960.0 | |
| 20260506163630 | 86 | 0.0 | 0.0 | 0.00 | 0.00 | 0.00 | 36 | 960.0 | |
| 20260506163130 | 86 | 0.0 | 0.0 | 0.00 | 0.00 | 0.00 | 36 | 960.1 | |
| 20260506162630 | 85 | 0.0 | 0.0 | 0.00 | 0.00 | 0.00 | 37 | 960.1 | |
| 20260506162130 | 85 | 0.0 | 0.0 | 0.00 | 0.00 | 0.00 | 37 | 960.2 | |
| 20260506161630 | 84 | 0.0 | 0.0 | 0.00 | 0.00 | 0.00 | 38 | 960.3 | |
| 20260506161130 | 84 | 0.0 | 0.0 | 0.00 | 0.00 | 0.00 | 37 | 960.2 | |
| 20260506160629 | 84 | 0.0 | 0.0 | 0.00 | 0.00 | 0.00 | 37 | 960.3 | |
| 20260506160129 | 83 | 0.0 | 0.0 | 0.00 | 0.00 | 0.00 | 37 | 960.1 | |
| 20260506155629 | 82 | 0.0 | 0.0 | 0.00 | 0.00 | 0.00 | 37 | 960.0 | |
| 20260506155129 | 80 | 0.0 | 0.0 | 0.00 | 0.00 | 0.00 | 36 | 959.7 | |
| 20260506154629 | 80 | 0.0 | 0.0 | 0.00 | 0.00 | 0.00 | 34 | 960.0 | |
| 20260506154128 | 83 | 0.0 | 0.0 | 0.00 | 0.00 | 0.00 | 33 | 960.0 | |
| 20260506153628 | 87 | 0.0 | 0.0 | 0.00 | 0.00 | 0.00 | 34 | 960.0 | |
| 20260506153128 | 87 | 0.0 | 0.0 | 0.00 | 0.00 | 0.00 | 35 | 960.0 | |
| 20260506152628 | 87 | 0.0 | 0.0 | 0.00 | 0.00 | 0.00 | 35 | 960.1 | |
| 20260506152128 | 87 | 0.0 | 0.0 | 0.00 | 0.00 | 0.00 | 35 | 960.0 | |
| 20260506151628 | 86 | 0.0 | 0.0 | 0.00 | 0.00 | 0.00 | 36 | 959.9 | |
| 20260506151128 | 84 | 0.0 | 0.0 | 0.00 | 0.00 | 0.00 | 37 | 959.8 | |
| 20260506150628 | 81 | 0.0 | 0.0 | 0.00 | 0.00 | 0.00 | 38 | 959.9 | |
| 20260506150128 | 77 | 0.0 | 0.0 | 0.00 | 0.00 | 0.00 | 36 | 960.0 | |
| 20260506145628 | 77 | 0.0 | 0.0 | 0.00 | 0.00 | 0.00 | 35 | 960.0 | |
| 20260506145127 | 78 | 0.0 | 0.0 | 0.00 | 0.00 | 0.00 | 35 | 960.0 | |
| 20260506144627 | 80 | 0.0 | 0.0 | 0.00 | 0.00 | 0.00 | 34 | 960.0 | |
| 20260506144127 | 81 | 0.0 | 0.0 | 0.00 | 0.00 | 0.00 | 34 | 960.1 | |
| 20260506143627 | 82 | 0.0 | 0.0 | 0.00 | 0.00 | 0.00 | 33 | 960.0 | |
| 20260506143127 | 84 | 0.0 | 0.0 | 0.00 | 0.00 | 0.00 | 32 | 960.0 | |
| 20260506142617 | 86 | 0.0 | 0.0 | 0.00 | 0.00 | 0.00 | 32 | 960.0 | |
| 20260506142117 | 89 | 0.0 | 0.0 | 0.00 | 0.00 | 0.00 | 33 | 960.0 | |
| 20260506141617 | 89 | 0.0 | 0.0 | 0.00 | 0.00 | 0.00 | 38 | 959.8 | |
| 20260506141117 | 85 | 0.0 | 0.0 | 0.00 | 0.00 | 0.00 | 40 | 959.8 | |
| 20260506140616 | 83 | 0.0 | 0.0 | 0.00 | 0.00 | 0.00 | 37 | 959.7 | |
| 20260506140116 | 82 | 0.0 | 0.0 | 0.00 | 0.00 | 0.00 | 38 | 959.8 | |
| 20260506135612 | 81 | 0.0 | 0.0 | 0.00 | 0.00 | 0.00 | 39 | 959.8 | |
| 20260506135112 | 82 | 0.0 | 0.0 | 0.00 | 0.00 | 0.00 | 38 | 960.0 | |
| 20260506134612 | 81 | 0.0 | 0.0 | 0.00 | 0.00 | 0.00 | 39 | 960.0 | |
| 20260506134111 | 81 | 0.0 | 0.0 | 0.00 | 0.00 | 0.00 | 39 | 960.0 | |
| 20260506133611 | 81 | 0.0 | 0.0 | 0.00 | 0.00 | 0.00 | 38 | 959.9 | |
| 20260506133111 | 81 | 0.0 | 0.0 | 0.00 | 0.00 | 0.00 | 39 | 960.0 | |
| 20260506132611 | 81 | 0.0 | 0.0 | 0.00 | 0.00 | 0.00 | 38 | 960.0 | |
| 20260506132111 | 82 | 0.0 | 0.0 | 0.00 | 0.00 | 0.00 | 38 | 960.1 | |
| 20260506131557 | 81 | 0.0 | 0.0 | 0.00 | 0.00 | 0.00 | 39 | 960.1 | |
| 20260506131057 | 81 | 0.0 | 0.0 | 0.00 | 0.00 | 0.00 | 38 | 960.0 | |
| 20260506130557 | 81 | 0.0 | 0.0 | 0.00 | 0.00 | 0.00 | 39 | 960.0 | |
| 20260506130057 | 81 | 0.0 | 0.0 | 0.00 | 0.00 | 0.00 | 39 | 960.0 | |
| 20260506125557 | 81 | 0.0 | 0.0 | 0.00 | 0.00 | 0.00 | 39 | 960.1 | |
| 20260506125057 | 81 | 0.0 | 0.0 | 0.00 | 0.00 | 0.00 | 39 | 960.0 | |
| 20260506124557 | 81 | 0.0 | 0.0 | 0.00 | 0.00 | 0.00 | 38 | 960.1 | |
| 20260506124057 | 81 | 0.0 | 0.0 | 0.00 | 0.00 | 0.00 | 38 | 960.1 | |
| 20260506123557 | 81 | 0.0 | 0.0 | 0.00 | 0.00 | 0.00 | 39 | 960.1 | |
| 20260506123057 | 81 | 0.0 | 0.0 | 0.00 | 0.00 | 0.00 | 39 | 960.1 | |
| 20260506122557 | 81 | 0.0 | 0.0 | 0.00 | 0.00 | 0.00 | 39 | 960.1 | |
| 20260506122057 | 81 | 0.0 | 0.0 | 0.00 | 0.00 | 0.00 | 38 | 960.1 | |
| 20260506121557 | 82 | 0.0 | 0.0 | 0.00 | 0.00 | 0.00 | 38 | 960.1 | |
| 20260506121057 | 82 | 0.0 | 0.0 | 0.00 | 0.00 | 0.00 | 39 | 960.2 | |
| 20260506120557 | 82 | 0.0 | 0.0 | 0.00 | 0.00 | 0.00 | 38 | 960.1 | |
| 20260506120057 | 82 | 0.0 | 0.0 | 0.00 | 0.00 | 0.00 | 39 | 960.2 | |
| 20260506115557 | 82 | 0.0 | 0.0 | 0.00 | 0.00 | 0.00 | 39 | 960.1 | |
| 20260506115057 | 82 | 0.0 | 0.0 | 0.00 | 0.00 | 0.00 | 39 | 960.0 | |
| 20260506114557 | 82 | 0.0 | 0.0 | 0.00 | 0.00 | 0.00 | 39 | 960.1 | |
| 20260506114057 | 82 | 0.0 | 0.0 | 0.00 | 0.00 | 0.00 | 39 | 960.1 | |
| 20260506113557 | 82 | 0.0 | 0.0 | 0.00 | 0.00 | 0.00 | 40 | 960.0 | |
| 20260506113057 | 82 | 0.0 | 0.0 | 0.00 | 0.00 | 0.00 | 40 | 960.1 | |
| 20260506112557 | 82 | 0.0 | 0.0 | 0.00 | 0.00 | 0.00 | 40 | 960.1 | |
| 20260506112057 | 82 | 0.0 | 0.0 | 0.00 | 0.00 | 0.00 | 41 | 960.1 | |
| 20260506111557 | 82 | 0.0 | 0.0 | 0.00 | 0.00 | 0.00 | 42 | 960.2 | |
| 20260506111057 | 81 | 0.0 | 0.0 | 0.00 | 0.00 | 0.00 | 44 | 960.1 | |
| 20260506062413 | 84 | 0.0 | 0.0 | 0.00 | 0.00 | 0.00 | 41 | 959.8 | |
| 20260506061049 | 84 | 0.0 | 0.0 | 0.00 | 0.00 | 0.00 | 39 | 959.9 | |
| 20260506060548 | 84 | 0.0 | 0.0 | 0.00 | 0.00 | 0.00 | 39 | 959.8 |